Flag for Luxembourg Weather past 2 weeks in Differdange, Luxembourg

Now
32 °F

Light snow. Ice fog.


Feels Like: 27 °F
Forecast: 33 / 36 °F
Wind: 5 mph from Southwest

Location: Luxembourg Airport

Current Time: Jan 26, 2015 at 5:34:31 AM

Latest Report: Jan 26, 2015 at 4:50 AM


Visibility: 1 mi

Pressure: 30.27 "Hg

Humidity: 100%

Dew point: 32 °F

Location of DifferdangeLocation

Historic Weather in Differdange — Graph

°F

Differdange temperature yesterday

Maximum temperature yesterday: 34 °F (at 10:20 AM)
Minimum temperature yesterday: 27 °F (at 4:50 AM)
Average temperature yesterday: 32 °F

Past Weeks' High & Low Weather Summary

 TemperatureHumidityPressure
High52 °F (Jan 13, 12:50 PM)100% (Jan 11, 7:50 AM)30.42 "Hg (Jan 11, 7:50 AM)
Low25 °F (Jan 21, 2:20 AM)54% (Jan 13, 12:50 PM)29.59 "Hg (Jan 15, 1:50 PM)
Average35 °F91%29.97 "Hg
* Reported Jan 11 3:20 AM — Jan 26 3:50 AM, Differdange, Weather by CustomWeather, © 2014

Note: Actual official high and low records may vary slightly from our data, if they occured in-between our weather recording intervals... More about our weather records

Advertising

Differdange weather history for previous 24 hours

 ConditionsComfort  
Time TempWeatherWind HumidityBarometerVisibility
3:50 AM
Jan 26
32 °FLight snow. Ice fog.5 mph100%30.30 "Hg1 mi
3:20 AM32 °FChilly.5 mph100%30.30 "HgN/A
2:50 AM32 °FChilly.3 mph100%30.30 "HgN/A
2:20 AM32 °FChilly.3 mph100%30.30 "HgN/A
1:50 AM32 °FChilly.3 mph100%30.33 "HgN/A
1:20 AM32 °FChilly.3 mph100%30.33 "HgN/A
12:50 AM32 °FLight snow. Ice fog.3 mph100%30.33 "Hg1 mi
12:20 AM32 °FLight snow. Ice fog.6 mph100%30.33 "Hg1 mi
11:50 PM
Jan 25
32 °FLight snow. Ice fog.2 mph100%30.33 "Hg1 mi
11:20 PM32 °FLight snow. Ice fog.6 mph100%30.36 "Hg1 mi
10:50 PM32 °FLight snow. Ice fog.6 mph100%30.36 "Hg1 mi
10:20 PM32 °FLight snow. Ice fog.7 mph100%30.36 "Hg1 mi
9:50 PM32 °FLight snow. Ice fog.6 mph100%30.36 "Hg1 mi
9:20 PM32 °FLight snow. Ice fog.8 mph100%30.36 "Hg1 mi
8:50 PM32 °FLight snow. Ice fog.6 mph100%30.39 "Hg1 mi
8:20 PM32 °FLight snow. Ice fog.7 mph100%30.39 "Hg1 mi
7:50 PM32 °FLight snow. Ice fog.6 mph100%30.39 "Hg1 mi
7:20 PM32 °FLight snow. Ice fog.7 mph100%30.39 "Hg1 mi
6:50 PM34 °FLight snow. Fog.7 mph93%30.39 "Hg1 mi
6:20 PM34 °FLight snow. Fog.7 mph93%30.39 "Hg1 mi
5:50 PM34 °FLight snow. Fog.6 mph93%30.39 "Hg1 mi
5:20 PM34 °FLight snow. Fog.5 mph93%30.39 "Hg1 mi
4:50 PM34 °FLight snow. Fog.3 mph93%30.39 "Hg1 mi
4:20 PM34 °FLight snow. Fog.5 mph93%30.39 "Hg1 mi
3:50 PM34 °FLight snow. Partly sunny.5 mph93%30.39 "Hg2 mi
3:20 PM34 °FPartly sunny.5 mph93%30.39 "Hg3 mi
2:50 PM34 °FMostly cloudy.3 mph93%30.39 "Hg3 mi
2:20 PM34 °FMostly cloudy.3 mph100%30.39 "Hg3 mi
1:50 PM34 °FPartly sunny.3 mph100%30.39 "Hg4 mi
1:20 PM34 °FScattered clouds.3 mph93%30.39 "Hg4 mi
12:50 PM34 °FScattered clouds.3 mph93%30.39 "Hg4 mi
12:20 PM34 °FPassing clouds.3 mph93%30.39 "Hg4 mi
11:50 AM32 °FClear.2 mph100%30.42 "Hg4 mi
11:20 AM34 °FPassing clouds.3 mph100%30.42 "Hg5 mi
10:50 AM34 °FPassing clouds.3 mph100%30.42 "Hg5 mi
10:20 AM34 °FScattered clouds.7 mph93%30.42 "Hg5 mi
9:50 AM32 °FPassing clouds.7 mph100%30.39 "Hg5 mi
9:20 AM32 °FScattered clouds.7 mph100%30.39 "Hg5 mi
8:50 AM32 °FPartly sunny.7 mph100%30.39 "Hg5 mi
8:20 AM30 °FPartly sunny.1 mph100%30.39 "Hg4 mi
7:50 AM30 °FPassing clouds.2 mph100%30.39 "Hg4 mi
7:20 AM30 °FClear.5 mph100%30.39 "Hg5 mi
6:50 AM30 °FClear.6 mph100%30.36 "Hg5 mi
6:20 AM30 °FPassing clouds.6 mph93%30.36 "Hg5 mi
5:50 AM30 °FPassing clouds.6 mph93%30.36 "Hg5 mi
5:20 AM30 °FLight fog.6 mph93%30.36 "Hg4 mi
Weather by CustomWeather, © 2014

See weather overviewHow to use our weather pages